[[{"header":{"parameterUnit":"m.s-1","parameterCategory":1,"la1":30.2991,"la2":30.254,"lo1":-89.0895,"lo2":-89.0444,"dy":0.0017,"dx":0.0017,"nx":28,"ny":28,"refTime":"2025-08-01T03:00:00:Z","depth":0,"parameterNumber":2,"parameterNumberName":"U-component_of_WINDS"},"data":[0,0,0,0,0,0,0,0,0,0,0,0,0,0,0,0,0,0,0,0,0,0,0,0,0,0,0,0,0,0,0,0,0,0,0,0,0,0,0,0,0,0,0,0,0,0,0,0,0,0,0,0,0,0,0,0,0,0,0.684,0.684,0,0.6838,0.6838,0.6838,0.6842,0.6842,0.6843,0.6843,0.684,0.684,0.6839,0,0,0,0,0,0,0,0,0,0,0,0,0,0.6848,0.6848,0.684,0.684,0.684,0.6838,0.6838,0.6838,0.6842,0.6842,0.6843,0.6843,0.684,0.684,0.6839,0,0,0,0,0,0,0,0,0,0,0,0,0,0.6845,0.6847,0.684,0.6842,0.6842,0.6838,0.6838,0.6838,0.6842,0.6842,0.6843,0.6843,0.684,0.684,0.6839,0.6833,0,0,0.6838,0.6838,0,0,0,0,0,0,0,0,0.6845,0.6844,0.6841,0.6842,0.6842,0.684,0.6839,0.6836,0.6842,0.6842,0.6843,0.6843,0.684,0.684,0.6839,0.6833,0.6833,0.6838,0.6838,0.6838,0.6838,0,0,0,0,0,0,0,0.6845,0.6845,0.6839,0.6841,0.6842,0.6843,0.6843,0.6839,0.684,0.6842,0.6842,0.6842,0.684,0.6839,0.6839,0.6833,0.6838,0.6838,0.6838,0.6838,0.6823,0.6823,0,0,0,0,0,0,0.6845,0.6845,0.6839,0.6839,0.6844,0.6842,0.6842,0.6841,0.684,0.684,0.6842,0.6842,0.6839,0.6839,0.6839,0.6832,0.6838,0.6838,0.6838,0.6823,0.6823,0.6823,0,0,0,0,0,0,0.6845,0.6845,0.6839,0.6842,0.6841,0.6842,0.684,0.684,0.6839,0.684,0.684,0.6841,0.684,0.6839,0.6835,0.6832,0.6838,0.6837,0.6823,0.6823,0.6823,0.6817,0,0,0,0,0,0,0.6845,0.6845,0.6842,0.6842,0.6841,0.6835,0.684,0.684,0.6839,0.684,0.6839,0.6839,0.684,0.6835,0.6834,0.6831,0.6837,0.6824,0.6823,0.6823,0.6818,0.6817,0.6816,0,0,0,0,0,0.6846,0.684,0.6842,0.6841,0.6838,0.6835,0.6834,0.6836,0.6839,0.6836,0.6837,0.6839,0.6832,0.6835,0.6834,0.683,0.6824,0.6823,0.6823,0.6818,0.6817,0.6816,0,0,0,0,0,0,0.6839,0.684,0.6842,0.6836,0.6835,0.6836,0.6832,0.6834,0.6833,0.6833,0.6835,0.6835,0.683,0.683,0.6833,0.6825,0.6828,0.6828,0.6825,0.6824,0.6823,0.6823,0.6837,0,0,0,0,0,0.6837,0.6834,0.6835,0.683,0.683,0.6831,0.683,0.6831,0.6831,0.683,0.683,0.6829,0.6827,0.6826,0.6824,0.6818,0.6818,0.6815,0.6815,0.6814,0.6813,0.6811,0.681,0.6821,0.6821,0.6821,0,0,0.6832,0.6833,0.6831,0.6829,0.6828,0.6826,0.6831,0.6828,0.6826,0.683,0.6826,0.6826,0.6825,0.682,0.6818,0.682,0.681,0.6813,0.6813,0.6812,0.6811,0.681,0.6809,0.6821,0.6821,0.6821,0,0,0.6823,0.6823,0.6819,0.6819,0.6818,0.682,0.6819,0.6819,0.6819,0.6816,0.6819,0.6817,0.6813,0.6813,0.6812,0.6804,0.6806,0.6804,0.6799,0.6797,0.6796,0.6795,0.6793,0.6792,0.6803,0.6803,0.6803,0,0.6817,0.6813,0.6816,0.6813,0.6813,0.6817,0.6813,0.6813,0.6812,0.6811,0.6813,0.681,0.6809,0.6805,0.6803,0.6803,0.6802,0.6803,0.6796,0.6795,0.6795,0.6793,0.6792,0.6803,0.6803,0.6803,0.6803,0,0.6807,0.6804,0.6801,0.6801,0.68,0.6797,0.6799,0.6798,0.68,0.6801,0.6798,0.6798,0.6797,0.6796,0.6797,0.6792,0.6793,0.6796,0.6799,0.6793,0.6791,0.6791,0.6802,0.6802,0.6802,0.6803,0,0,0.6791,0.6794,0.6793,0.6793,0.6794,0.6792,0.679,0.6789,0.6788,0.6788,0.6786,0.6783,0.6786,0.6785,0.6787,0.6785,0.678,0.6788,0.6788,0.6787,0.6775,0.6773,0.6772,0.6782,0.6782,0.6782,0.6775,0,0.6782,0.6778,0.6781,0.6776,0.6774,0.6779,0.6777,0.6777,0.6779,0.6778,0.6779,0.6778,0.6781,0.6781,0.678,0.6781,0.6778,0.6782,0.678,0.678,0.678,0.6771,0.6769,0.6763,0.6775,0.6774,0.6774,0,0.677,0.677,0.6766,0.6768,0.6767,0.6765,0.6766,0.6764,0.6766,0.6767,0.6767,0.677,0.6768,0.6772,0.677,0.6772,0.6772,0.6773,0.6773,0.6772,0.6777,0.6771,0.6761,0.676,0.6773,0.6773,0.6773,0,0.676,0.6759,0.6756,0.6756,0.6759,0.6758,0.6759,0.676,0.676,0.676,0.676,0.676,0.676,0.676,0.6763,0.6766,0.6761,0.6765,0.6762,0.6762,0.676,0.676,0.675,0.6761,0.6761,0.6761,0.6761,0,0.6749,0.6746,0.6752,0.675,0.6747,0.6751,0.6748,0.675,0.6751,0.675,0.6754,0.6753,0.6757,0.6757,0.6759,0.6758,0.6757,0.6759,0.6759,0.6758,0.6758,0.6758,0.6758,0.676,0.676,0.6761,0.6761,0,0.6737,0.674,0.6738,0.6741,0.6742,0.674,0.6743,0.6741,0.6744,0.6743,0.6743,0.6746,0.6746,0.6749,0.675,0.6751,0.6749,0.675,0.6748,0.6749,0.6746,0.6746,0.6735,0.6734,0.6745,0.6745,0.6745,0,0.673,0.6727,0.6731,0.6731,0.6732,0.6731,0.6732,0.6736,0.6736,0.6738,0.6737,0.6737,0.6738,0.6738,0.674,0.6741,0.6743,0.6739,0.6743,0.6742,0.6743,0.6743,0.6743,0.6738,0.6738,0.6737,0.6737,0,0.6716,0.6719,0.6719,0.672,0.672,0.6721,0.6722,0.6722,0.6727,0.6727,0.6727,0.6728,0.6729,0.673,0.6731,0.6733,0.6736,0.6736,0.6736,0.6734,0.6734,0.6734,0.6746,0.6736,0.6736,0.6736,0.6737,0.6737,0.6706,0.6705,0.6708,0.6708,0.671,0.6711,0.6711,0.6714,0.6714,0.6715,0.6718,0.6718,0.6721,0.6723,0.6725,0.6725,0.6727,0.6726,0.6726,0.6726,0.6725,0.6734,0.6726,0.6726,0.6726,0.6726,0.6726,0,0.6694,0.6696,0.6696,0.6699,0.6699,0.6703,0.6705,0.6705,0.6705,0.6708,0.6709,0.671,0.6711,0.6714,0.6716,0.6715,0.6717,0.6716,0.6716,0.6716,0.6723,0.6724,0.6714,0.6714,0.6714,0.6714,0.6714,0.6714,0.6687,0.6685,0.6688,0.6688,0.669,0.6691,0.6692,0.6693,0.6695,0.6696,0.6697,0.67,0.6703,0.6705,0.6707,0.6708,0.6708,0.6706,0.6708,0.6714,0.6715,0.6716,0.6717,0.6706,0.6706,0.6701,0.6701,0.6701]},{"header":{"parameterUnit":"m.s-1","parameterCategory":1,"la1":30.2991,"la2":30.254,"lo1":-89.0895,"lo2":-89.0444,"dy":0.0017,"dx":0.0017,"nx":28,"ny":28,"refTime":"2025-08-01T03:00:00:Z","depth":0,"parameterNumber":3,"parameterNumberName":"V-component_of_WINDS"},"data":[0,0,0,0,0,0,0,0,0,0,0,0,0,0,0,0,0,0,0,0,0,0,0,0,0,0,0,0,0,0,0,0,0,0,0,0,0,0,0,0,0,0,0,0,0,0,0,0,0,0,0,0,0,0,0,0,0,0,-1.3268,-1.3267,0,-1.3204,-1.3204,-1.3203,-1.3166,-1.3166,-1.3166,-1.3166,-1.3096,-1.3094,-1.3092,0,0,0,0,0,0,0,0,0,0,0,0,0,-1.3353,-1.3352,-1.3268,-1.3267,-1.3266,-1.3204,-1.3204,-1.3203,-1.3166,-1.3166,-1.3166,-1.3166,-1.3096,-1.3094,-1.3092,0,0,0,0,0,0,0,0,0,0,0,0,0,-1.3305,-1.3351,-1.3268,-1.3241,-1.3238,-1.3205,-1.3204,-1.3202,-1.3166,-1.3166,-1.3166,-1.3166,-1.3097,-1.3094,-1.3092,-1.3079,0,0,-1.3084,-1.3083,0,0,0,0,0,0,0,0,-1.3308,-1.3302,-1.3246,-1.3243,-1.3239,-1.3193,-1.3208,-1.3161,-1.3166,-1.3193,-1.3166,-1.3166,-1.3128,-1.3123,-1.3111,-1.3076,-1.3073,-1.3083,-1.3082,-1.3081,-1.308,0,0,0,0,0,0,0,-1.3311,-1.3305,-1.3243,-1.3245,-1.3241,-1.323,-1.3223,-1.3199,-1.3162,-1.3191,-1.3188,-1.3181,-1.3126,-1.3114,-1.3109,-1.3072,-1.3084,-1.3081,-1.308,-1.3079,-1.3023,-1.3023,0,0,0,0,0,0,-1.332,-1.3308,-1.3245,-1.3241,-1.3274,-1.3229,-1.3221,-1.3208,-1.3162,-1.3155,-1.3182,-1.318,-1.3118,-1.3112,-1.3106,-1.3088,-1.3081,-1.3078,-1.3077,-1.3022,-1.3023,-1.3023,0,0,0,0,0,0,-1.3322,-1.3315,-1.3247,-1.3273,-1.3264,-1.3228,-1.3213,-1.3207,-1.3194,-1.3155,-1.3148,-1.3176,-1.3118,-1.311,-1.3086,-1.3085,-1.3077,-1.3075,-1.3022,-1.3022,-1.3023,-1.3053,0,0,0,0,0,0,-1.3324,-1.3316,-1.3311,-1.3274,-1.3263,-1.323,-1.3213,-1.3206,-1.3191,-1.3188,-1.3148,-1.3141,-1.3117,-1.3091,-1.3084,-1.3082,-1.3073,-1.3022,-1.3022,-1.3023,-1.3051,-1.3054,-1.3056,0,0,0,0,0,-1.3328,-1.3321,-1.3311,-1.3304,-1.3257,-1.323,-1.3223,-1.3197,-1.3191,-1.3186,-1.3161,-1.3143,-1.3087,-1.3089,-1.3081,-1.3078,-1.3022,-1.3022,-1.3023,-1.3051,-1.3053,-1.3056,0,0,0,0,0,0,-1.3358,-1.3316,-1.3304,-1.3286,-1.3262,-1.3224,-1.3217,-1.3201,-1.3177,-1.3175,-1.3142,-1.3133,-1.3112,-1.3092,-1.3095,-1.3063,-1.3052,-1.3051,-1.3076,-1.3079,-1.3081,-1.3086,-1.307,0,0,0,0,0,-1.3363,-1.3346,-1.3309,-1.3297,-1.3285,-1.3253,-1.324,-1.3222,-1.3195,-1.3184,-1.3157,-1.313,-1.3107,-1.3092,-1.3068,-1.3049,-1.3039,-1.3043,-1.3045,-1.3047,-1.3045,-1.3033,-1.3034,-1.3023,-1.3023,-1.3023,0,0,-1.3372,-1.3347,-1.3338,-1.3302,-1.3281,-1.3263,-1.3245,-1.3226,-1.3211,-1.3181,-1.3157,-1.3137,-1.3104,-1.3083,-1.3072,-1.3066,-1.3047,-1.3047,-1.3049,-1.3046,-1.3034,-1.3035,-1.3036,-1.3023,-1.3023,-1.3023,0,0,-1.338,-1.336,-1.3347,-1.3327,-1.3296,-1.3275,-1.3272,-1.3236,-1.3222,-1.3198,-1.3175,-1.3156,-1.3116,-1.3094,-1.3078,-1.3077,-1.306,-1.307,-1.3081,-1.3069,-1.307,-1.3071,-1.307,-1.307,-1.3069,-1.307,-1.307,0,-1.3395,-1.3368,-1.3342,-1.3325,-1.3309,-1.3282,-1.3268,-1.3249,-1.3212,-1.3201,-1.3195,-1.3145,-1.3121,-1.3094,-1.3094,-1.3082,-1.3076,-1.3074,-1.3073,-1.3073,-1.3073,-1.3072,-1.3072,-1.3071,-1.3071,-1.3071,-1.3071,0,-1.3387,-1.3369,-1.3362,-1.3328,-1.3312,-1.3296,-1.3266,-1.3253,-1.3236,-1.3215,-1.3191,-1.3162,-1.3131,-1.3124,-1.3106,-1.3094,-1.3091,-1.3079,-1.3068,-1.3076,-1.3074,-1.3074,-1.3073,-1.3073,-1.3072,-1.3072,0,0,-1.3411,-1.3365,-1.3362,-1.3347,-1.3311,-1.3296,-1.3278,-1.325,-1.3239,-1.3214,-1.3198,-1.3165,-1.3154,-1.3135,-1.3116,-1.3106,-1.3107,-1.3095,-1.3094,-1.3098,-1.309,-1.3099,-1.3099,-1.3095,-1.3095,-1.3095,-1.3092,0,-1.3413,-1.3383,-1.3359,-1.3337,-1.3319,-1.3294,-1.3278,-1.3254,-1.3234,-1.3215,-1.3192,-1.3169,-1.3157,-1.3145,-1.3134,-1.3109,-1.3105,-1.3109,-1.3078,-1.3077,-1.3087,-1.3098,-1.3107,-1.3106,-1.3092,-1.3092,-1.3091,0,-1.3411,-1.3389,-1.3366,-1.3333,-1.3324,-1.3311,-1.3283,-1.3266,-1.3237,-1.3223,-1.3203,-1.3183,-1.3162,-1.3154,-1.3123,-1.3127,-1.3113,-1.3099,-1.3098,-1.3093,-1.3085,-1.3093,-1.3105,-1.3105,-1.309,-1.309,-1.309,0,-1.3431,-1.3395,-1.3376,-1.3364,-1.3324,-1.3316,-1.3299,-1.327,-1.3255,-1.323,-1.322,-1.3193,-1.3177,-1.3156,-1.3128,-1.3125,-1.3101,-1.309,-1.3087,-1.3088,-1.3083,-1.3083,-1.3092,-1.3075,-1.3075,-1.3075,-1.3075,0,-1.3435,-1.3421,-1.3385,-1.3373,-1.3357,-1.3329,-1.3313,-1.3294,-1.3269,-1.3252,-1.3228,-1.3212,-1.3177,-1.3156,-1.3135,-1.3113,-1.3106,-1.3093,-1.3087,-1.3095,-1.3096,-1.3084,-1.3083,-1.3075,-1.3075,-1.3075,-1.3075,0,-1.3454,-1.3429,-1.3407,-1.3372,-1.3363,-1.3352,-1.3321,-1.3308,-1.3288,-1.3266,-1.326,-1.3226,-1.3201,-1.3172,-1.3136,-1.3121,-1.3101,-1.3092,-1.3111,-1.3107,-1.3106,-1.3106,-1.3107,-1.3105,-1.309,-1.3091,-1.3091,0,-1.3458,-1.3447,-1.3412,-1.34,-1.3384,-1.3364,-1.3349,-1.3321,-1.3306,-1.3273,-1.3264,-1.3237,-1.3214,-1.3175,-1.3146,-1.3118,-1.3109,-1.3111,-1.3104,-1.3112,-1.3108,-1.3109,-1.3107,-1.3113,-1.3113,-1.3113,-1.3113,0,-1.3467,-1.3456,-1.3436,-1.3411,-1.3394,-1.3373,-1.3351,-1.3342,-1.3309,-1.3293,-1.3268,-1.3251,-1.3215,-1.3189,-1.3158,-1.3138,-1.312,-1.3116,-1.3114,-1.3121,-1.3132,-1.3125,-1.3115,-1.3116,-1.3116,-1.3115,-1.3115,-1.3115,-1.3478,-1.3468,-1.3441,-1.342,-1.34,-1.338,-1.3367,-1.3345,-1.3324,-1.3294,-1.3279,-1.3254,-1.3224,-1.3182,-1.3163,-1.3141,-1.3135,-1.3132,-1.3131,-1.3131,-1.3133,-1.3136,-1.3136,-1.3136,-1.3135,-1.3135,-1.3135,0,-1.3486,-1.3468,-1.3449,-1.342,-1.3402,-1.3389,-1.3364,-1.3349,-1.3328,-1.3304,-1.3282,-1.3253,-1.3227,-1.3197,-1.3169,-1.3158,-1.3148,-1.3151,-1.3151,-1.3147,-1.314,-1.3145,-1.3159,-1.3159,-1.3159,-1.3159,-1.3159,-1.3159,-1.3488,-1.347,-1.3455,-1.3426,-1.3407,-1.3384,-1.3371,-1.3352,-1.3332,-1.3301,-1.328,-1.3262,-1.3234,-1.3204,-1.3179,-1.3171,-1.3161,-1.3166,-1.3155,-1.3149,-1.3147,-1.3145,-1.3149,-1.3164,-1.3164,-1.3163,-1.3163,-1.3163]}]]